7 * 24
多渠道服务支持
Hi!有什么问题可以问我哦~
FENGYUN 3F(风云三号F星)是中国于2023年8月3日发射的第二代极轨气象卫星,运行于836公里高度的太阳同步轨道,降交点过赤道时间为上午10点左右。卫星共搭载10台先进探测载荷,包括升级后的中分辨率光谱成像仪、红外高光谱大气垂直探测仪等,所有载荷均工作正常。它可实现全球多光谱、三维定量大气观测,数据广泛应用于数值天气预报、气候监测、防灾减灾等领域,与组网卫星共同提升我国气象观测精度与全球服务能力。
中国
(CN)
| 数据来源 | 国际轨道数据 |
| 星历时间: | 2026-04-04T05:57:23+0800 10小时前 查看轨道信息 |
| 半长轴: | 7203.742km |
| 偏心率: | 0.0000818 |
| 轨道倾角: | 98.688° |
| 近地点辐角 | 86.224° |
| 升交点赤经 | 165.293° |
| 平近点角 | 273.903° |
| 近地点: | 825.015km |
| 远地点: | 826.195km |
| 周期: | 101.414分钟 |
| 每日圈数: | 14.199257 |